CFB Gagetown, New Brunswick

Past 24 Hour Conditions

This table is a summary of hourly weather conditions for the past 24 hours. This summary includes the following parameters: temperature, humidity, dew point, wind speed and direction, air pressure, visibility and/or wind chill and humidex.
Date / Time
(ADT)
Conditions Temp (°F) Humidity (%) Dew Point (°F) Wind (mph) Pressure (inches) Vis (mi) Humidex
02 September 2014
16:00 Mostly Cloudy 80   69 69 S 6 29.9 15 94
15:00 Mostly Cloudy 77 72 68 SSW 6 29.9 15 91
14:00 Mostly Cloudy 74 78 67 SE 6 29.9 12 87
13:00 Cloudy 71 85 66 SW 5 29.9 10 83
12:00 Cloudy 68 89 64 S 5 29.9 8 *
11:00 Cloudy 67 91 64 SW 6 29.9 8 *
10:00 Fog 66 91 64 S 3 29.9 6 *
9:00 Fog 66 93 64 SE 2 29.9 3 *
8:00 Light Drizzle 65 94 64 SSE 3 29.9 0.2 *
7:00 Light Drizzle 65 94 63 ESE 2 29.9 0.2 *
6:00 Light Drizzle 64   94 63 E 2 29.9 0.2 *
5:00 Light Drizzle 64   94 63 ENE 2 29.9 0.2 *
4:00 Light Drizzle 65 94 63 NE 2 29.9 0.2 *
3:00 Light Drizzle 65 94 63 calm 29.9 0.4 *
2:00 Light Drizzle 65 94 63 calm 29.9 0.5 *
1:00 Light Drizzle 65 94 63 E 5 30.0 0.5 *
00:00 Light Drizzle 65 93 63 ENE 6 30.0 1 *
01 September 2014
23:00 Light Drizzle 65 92 63 ENE 5 30.0 3 *
22:00 Cloudy 66 89 62 ENE 2 30.0 15 *
21:00 Cloudy 66 88 62 ENE 6 30.0 15 *
20:00 Cloudy 66 88 62 E 7 30.0 15 *
19:00 Cloudy 66 88 63 ENE 8 29.9 15 *
18:00 Cloudy 67 87 63 ENE 8 30.0 15 *
17:00 Cloudy 68 84 63 ENE 8 29.9 15 78
16:00 Cloudy 69 83 64 NE 8 29.9 15 79
N/A
Not available
 ↑ 
Highest temperature
 ↓ 
Lowest temperature
*
Value not significant.

If you require additional historical weather information, please visit Climate Data Online.